Find Starlink 31128

NORAD ID: 58669 Int'l Des: 2023-211 Owner: SPXS Country: US Constellation: starlink operational
LEOCIRCULAR

リアルタイム位置

3D地球を読み込み中...

Starlink 31128について

説明を読み込み中...

次回通過

Passes for default location (London). Set your location on the main map for personalized predictions.

高度履歴

Loading altitude history...

軌道要素

1 58669U 23211C 26132.55971526 .00000176 00000-0 15915-4 0 9996
2 58669 43.0020 84.4923 0000823 270.6344 89.4413 15.27573785132234
Epoch: May 12, 2026 • Age: 12 hours

現在のステータス

高度 486.9 km
速度 7.62 km/s
衛星直下点 -19.02°S, 161.2°E
打ち上げ日 Dec 29, 2023
運用期間 2.3 years
タイプ internet

技術仕様

分類 Payload
質量 730.00 kg
乾燥質量 700.00 kg
総質量 730.00 kg
長さ 0.30 m
直径 4.10 m
スパン 29.00 m
形状 Box + pan
製造者 SPXS
バスタイプ Starlink V2M
フェーズステータス In Orbit
所有者/国 SPXS/US

Most Searched